SKY MUSTER 2

Last updated on May 20, 2019, 3:09 a.m. UTC

1 41794U 16060B   19139.85986759 -.00000254  00000-0  00000+0 0  9999
2 41794   0.0112 286.9627 0001808 133.7841 270.8342  1.00272785  9642
UTC
Height (km)
Latitude
Longitude
Inclination
Orbital Period
UTC large
Height (km)
Speed (km/s)
/
Latitude / Longitude
Inclination (degrees)
Orbital Period (minutes)
Azimuth
Elevation
Range (km)
Doppler Factor
iOS Compass Heading
iOS Angle

Next 30 passes for location: Hong Kong

Rise time Rise Azimuth (degrees) Set time Set Azimuth (degrees) Duration Max altitude (degrees)

No matching passes for this satellites